Location: Boca do Mato
(22.9085°S, 43.2930°W)
Time: 22:14:10
(UTC+00:00)

Cosmos 1953 - Pass Details

Date: 14 July 2020
Orbit: 540 x 557 km, 82.5° (Epoch: 10 August)

Event Time Altitude Azimuth Distance (km) Brightness Sun altitude
Rises 08:21:13 0° 178° (S) 2,736 5.7 -16.5°
Reaches altitude 10° 08:23:28 10° 172° (S) 1,833 4.9 -16.0°
Maximum altitude 08:27:22 48° 97° (E) 717 3.3 -15.2°
Drops below altitude 10° 08:31:12 10° 21° (NNE) 1,801 5.5 -14.3°
Sets 08:33:23 0° 15° (NNE) 2,683 6.3 -13.8°
